Total_Precipitation_Accumulation
1.20 1.30 1.38 1.44 1.48 1.44 1.47 1.51 1.58 1.57 1.45 1.26 1.21 1.17 1.13 1.13 1.29 1.02 1.01 1.23 1.14 1.06 1.00 0.94 0.90 0.82 0.77 0.73 0.70 0.69 0.68 0.70 0.75 0.78 0.83 0.91 1.00 1.13
0.95 1.04 1.16 1.26 1.40 1.47 1.55 1.57 1.57 1.56 1.50 1.31 1.25 1.25 1.18 1.11 1.31 1.08 1.06 1.13 1.00 0.91 0.83 0.77 0.74 0.69 0.65 0.65 0.65 0.63 0.61 0.61 0.61 0.62 0.66 0.70 0.77 0.86
0.77 0.83 0.93 0.99 1.12 1.22 1.30 1.35 1.43 1.45 1.46 1.37 1.28 1.27 1.24 1.21 1.19 1.05 0.96 0.91 0.88 0.84 0.73 0.67 0.64 0.59 0.57 0.59 0.61 0.59 0.58 0.57 0.58 0.58 0.60 0.63 0.65 0.67
0.62 0.68 0.74 0.77 0.86 0.90 0.97 1.06 1.13 1.20 1.24 1.34 1.41 1.34 1.27 1.25 1.16 1.01 0.82 0.72 0.72 0.75 0.68 0.65 0.65 0.64 0.61 0.60 0.59 0.57 0.53 0.48 0.47 0.51 0.54 0.54 0.54 0.57
0.46 0.50 0.56 0.60 0.62 0.62 0.66 0.72 0.81 0.93 1.08 1.19 1.28 1.29 1.26 1.25 1.21 0.98 0.80 0.77 0.62 0.62 0.58 0.58 0.59 0.60 0.59 0.53 0.49 0.47 0.45 0.38 0.32 0.32 0.35 0.39 0.42 0.43
0.36 0.39 0.44 0.46 0.47 0.48 0.50 0.55 0.63 0.79 0.94 1.03 1.02 1.03 1.07 1.03 1.06 0.98 0.85 0.74 0.62 0.46 0.44 0.41 0.40 0.39 0.41 0.40 0.38 0.37 0.37 0.36 0.32 0.29 0.27 0.25 0.24 0.25
0.29 0.29 0.32 0.37 0.41 0.41 0.41 0.48 0.59 0.74 0.84 0.90 0.91 0.84 0.82 0.84 0.86 0.80 0.80 0.74 0.62 0.46 0.42 0.33 0.31 0.33 0.36 0.36 0.35 0.31 0.27 0.25 0.25 0.22 0.20 0.18 0.17 0.17
0.32 0.28 0.27 0.28 0.31 0.34 0.37 0.44 0.53 0.61 0.66 0.71 0.74 0.75 0.72 0.71 0.75 0.75 0.74 0.75 0.71 0.53 0.47 0.39 0.30 0.37 0.37 0.34 0.29 0.25 0.23 0.22 0.22 0.21 0.20 0.20 0.18 0.15
0.37 0.35 0.29 0.25 0.32 0.35 0.36 0.39 0.44 0.46 0.52 0.62 0.68 0.69 0.67 0.72 0.81 0.81 0.80 0.77 0.73 0.58 0.57 0.56 0.44 0.44 0.32 0.24 0.24 0.21 0.20 0.21 0.20 0.17 0.17 0.17 0.17 0.16
0.37 0.37 0.39 0.39 0.36 0.36 0.33 0.35 0.40 0.45 0.50 0.55 0.66 0.67 0.62 0.66 0.78 0.82 0.78 0.72 0.68 0.65 0.67 0.69 0.51 0.44 0.30 0.36 0.34 0.25 0.20 0.23 0.23 0.16 0.13 0.13 0.14 0.15
0.29 0.32 0.33 0.36 0.35 0.36 0.36 0.38 0.40 0.45 0.45 0.52 0.57 0.61 0.67 0.70 0.70 0.72 0.80 0.88 0.84 0.74 0.71 0.76 0.64 0.50 0.40 0.45 0.42 0.32 0.29 0.34 0.32 0.21 0.14 0.13 0.14 0.15
0.27 0.29 0.30 0.27 0.26 0.26 0.30 0.41 0.50 0.48 0.45 0.50 0.66 0.83 0.89 0.87 0.77 0.77 0.87 0.93 0.92 0.93 0.79 0.78 0.80 0.64 0.57 0.47 0.45 0.46 0.50 0.57 0.51 0.35 0.21 0.17 0.17 0.21
0.29 0.30 0.30 0.23 0.20 0.22 0.28 0.39 0.45 0.43 0.49 0.65 0.86 0.97 0.94 0.85 0.75 0.71 0.78 0.87 0.93 0.99 0.81 0.76 0.81 0.80 0.81 0.66 0.46 0.49 0.61 0.74 0.76 0.62 0.39 0.27 0.23 0.23
0.28 0.27 0.26 0.24 0.21 0.23 0.25 0.31 0.34 0.42 0.60 0.80 0.91 0.88 0.74 0.63 0.60 0.58 0.59 0.67 0.79 0.80 0.71 0.71 0.80 0.81 0.83 0.76 0.59 0.54 0.66 0.82 0.88 0.79 0.62 0.49 0.38 0.31
0.27 0.25 0.25 0.27 0.29 0.35 0.37 0.35 0.41 0.56 0.70 0.79 0.82 0.75 0.65 0.57 0.53 0.53 0.52 0.59 0.64 0.59 0.50 0.52 0.64 0.69 0.76 0.77 0.74 0.77 0.84 0.99 1.01 0.92 0.80 0.66 0.52 0.41
0.27 0.30 0.38 0.43 0.45 0.48 0.51 0.56 0.58 0.60 0.60 0.69 0.69 0.64 0.55 0.51 0.49 0.46 0.50 0.55 0.60 0.60 0.51 0.46 0.53 0.64 0.77 0.77 0.83 0.91 0.93 1.11 1.12 1.00 0.93 0.84 0.70 0.54
0.25 0.36 0.52 0.58 0.58 0.57 0.55 0.55 0.56 0.55 0.57 0.58 0.56 0.55 0.53 0.49 0.47 0.42 0.43 0.47 0.54 0.56 0.53 0.47 0.49 0.52 0.54 0.59 0.71 0.78 0.84 0.98 1.09 1.01 0.94 1.01 0.98 0.76
0.29 0.48 0.57 0.60 0.62 0.56 0.52 0.48 0.47 0.47 0.45 0.46 0.47 0.47 0.48 0.46 0.45 0.41 0.39 0.42 0.47 0.46 0.44 0.42 0.42 0.44 0.42 0.44 0.63 0.73 0.75 0.93 1.01 0.90 0.80 0.92 1.06 0.89
0.32 0.43 0.50 0.54 0.55 0.49 0.46 0.45 0.45 0.42 0.40 0.39 0.41 0.42 0.41 0.41 0.40 0.40 0.37 0.38 0.42 0.41 0.38 0.33 0.33 0.35 0.37 0.50 0.67 0.82 0.80 0.84 0.84 0.78 0.72 0.73 0.92 0.93
0.31 0.37 0.41 0.44 0.46 0.43 0.40 0.38 0.37 0.35 0.33 0.33 0.34 0.36 0.37 0.35 0.34 0.35 0.34 0.32 0.35 0.36 0.34 0.31 0.30 0.32 0.34 0.43 0.67 0.83 0.84 0.68 0.60 0.64 0.67 0.69 0.80 0.80
0.28 0.31 0.32 0.32 0.33 0.34 0.35 0.34 0.31 0.29 0.28 0.28 0.29 0.31 0.31 0.31 0.32 0.29 0.26 0.22 0.25 0.28 0.29 0.30 0.29 0.25 0.24 0.26 0.46 0.66 0.73 0.79 0.67 0.56 0.55 0.57 0.55 0.46
0.24 0.27 0.26 0.25 0.25 0.25 0.25 0.24 0.23 0.21 0.19 0.21 0.25 0.29 0.28 0.27 0.27 0.24 0.21 0.22 0.23 0.24 0.25 0.25 0.24 0.21 0.21 0.28 0.43 0.57 0.61 0.55 0.54 0.56 0.54 0.39 0.26 0.28
0.24 0.25 0.22 0.21 0.20 0.19 0.17 0.17 0.16 0.16 0.16 0.18 0.21 0.25 0.24 0.21 0.19 0.16 0.14 0.13 0.12 0.13 0.17 0.20 0.20 0.19 0.19 0.22 0.29 0.35 0.35 0.31 0.23 0.24 0.38 0.43 0.33 0.33